Regional Weather Roundup
Issued by NWS

Home | Current Version | Previous Version | Text Only | Print | Product List | Glossary Off
Versions: 1 2 3 4 5 6 7 8 9 10 11 12 13 14 15 16 17 18 19 20 21 22 23 24 25 26 27 28 29 30 31 32 33 34 35 36 37 38 39 40 41 42 43 44 45 46 47 48 49 50

000
ASUS45 KBOU 232307
RWRCO

WEATHER ROUNDUP FOR COLORADO
NATIONAL WEATHER SERVICE DENVER/BOULDER CO
500 PM MDT FRI JUN 23 2017

NOTE: "FAIR" INDICATES FEW OR NO CLOUDS BELOW 12000 FEET WITH NO
SIGNIFICANT WEATHER AND/OR OBSTRUCTIONS TO VISIBILITY.

COZ001>005-013-030-031-240000-
...NORTHWEST COLORADO...

CITY           SKY/WX    TMP DP  RH WIND       PRES   REMARKS
CRAIG          FAIR      81  22  11 NW8       30.19F
HAYDEN         FAIR      77  25  14 NW10G17   30.21S
MEEKER         FAIR      81  22  11 VRB3      30.19F
RABBIT EARS PA FAIR      57  30  35 W8G18     30.46S
STEAMBOAT SPGS FAIR      74  26  17 W10       30.23S
WALDEN         FAIR      70  28  21 NW13      30.31S
$$

COZ006>008-011-240000-
...WEST CENTRAL VALLEYS...

CITY           SKY/WX    TMP DP  RH WIND       PRES   REMARKS
GRAND JUNCTION FAIR      93  23   8 W14       30.01F
MONTROSE       FAIR      89  25  10 NW9G18    30.09F
EAGLE          SUNNY     84  21  10 W18       30.15S
RIFLE          FAIR      89  25  10 NW12G22   30.08S
DELTA          FAIR      95  11   4 W10G25    30.04S
NUCLA          FAIR      91  19   7 NW15G21   30.13S
$$

COZ017>023-064>068-240000-
...SOUTHWEST COLORADO...

CITY           SKY/WX    TMP DP  RH WIND       PRES   REMARKS
DURANGO        FAIR      89  19   7 NW25G36   30.12F
CORTEZ         FAIR      94  20   7 W13G24    30.08S
PAGOSA SPRINGS FAIR      88   2   4 SW16G30   30.18S
TELLURIDE      FAIR      76  18  11 W15G23    30.38S
WOLF CREEK PAS FAIR      64   9  11 W6        30.60S
$$

COZ009-010-012-014-032>034-037-058>063-240000-
...CENTRAL COLORADO...

CITY           SKY/WX    TMP DP  RH WIND       PRES   REMARKS
ASPEN          FAIR      79  19  10 N16G26    30.23R
BUENA VISTA    FAIR      71  41  33 SE12G17   30.21F
COPPER MTN     FAIR      61  19  20 W29       30.54S
BERTHOUD PASS  FAIR      50  36  57 NW30G40   30.56S
COTTONWOOD PAS FAIR      73  32  21 E5        30.36S
GUNNISON       FAIR      81  22  11 W12G22    30.23R
KREMMLING      NOT AVBL
LEADVILLE      FAIR      69   0   6 NW18G28   30.38R
MONARCH PASS   FAIR      63  23  22 W33G47    30.64S
SALIDA         FAIR      67  47  48 SE18G30   30.27S
SUNLIGHT       FAIR      63  21  20 W9        30.52R
WILKERSON PASS FAIR      52  41  66 E7        30.50R
$$

COZ069>075-240000-
...SAN LUIS VALLEY/SANGRE DE CRISTO MOUNTAINS...

CITY           SKY/WX    TMP DP  RH WIND       PRES   REMARKS
ALAMOSA        FAIR      87  35  15 VRB5      30.12F
DEL NORTE      FAIR      87  10   5 W17G24    30.17S
LA VETA PASS   RAIN      45  41  87 N3        30.51R VSB<1/4
SAGUACHE       FAIR      84   9   6 NW31G39   30.19S
$$

COZ035-036-038>040-240000-
...NORTHERN COLORADO FRONT RANGE...

CITY           SKY/WX    TMP DP  RH WIND       PRES   REMARKS
DENVER INTL AP CLOUDY    60  45  57 S7        30.25F
DMNS CITY PARK   N/A     58  45  62 N7        30.26F
AURORA         CLOUDY    56  46  67 SE5       30.27F
FRONT RANGE AP CLOUDY    63  46  55 S8        30.27S
ERIE MUNI ARPT CLOUDY    61  46  57 SW3       30.25F
BOULDER MUN AP FAIR      61  45  55 S3        30.26S
CENTENNIAL     CLOUDY    53  46  77 NE3       30.27F
BROOMFIELD     CLOUDY    57  46  67 SW5       30.28S
FORT COLLINS   FAIR      63  45  51 S9        30.25F
LONGMONT       CLOUDY    62  45  53 CALM      30.27S
$$

COZ041-046-047-076>085-087-088-240000-
...PIKES PEAK/PALMER DIVIDE AND SOUTHERN FOOTHILLS...

CITY           SKY/WX    TMP DP  RH WIND       PRES   REMARKS
COLO. SPRINGS  CLOUDY    57  46  66 S8        30.28S
A. F. ACADEMY  CLOUDY    54  46  74 S7        30.28S
SCHRIEVER AFB  CLOUDY    55  45  68 S7        30.28S
CHEYENNE MTN   CLOUDY    50  46  84 S7        30.25R
ELLICOTT       CLOUDY   N/A N/A N/A S5        30.26S
FALCON           N/A     54  44  68 S7        30.31S
FORT CARSON    CLOUDY    57  47  69 SE3       30.25S
LIMON          CLOUDY    63  43  48 E6        30.25F
MONUMENT HILL  CLOUDY    52  45  76 S8        30.32S
CANON CITY     CLOUDY    59  52  77 E6        30.24S
WALSENBURG     CLOUDY    57  50  77 CALM      30.25S
TRINIDAD       PTSUNNY   63  47  55 S7        30.23F
$$

COZ042>045-048>051-090-091-240000-
...NORTHEAST COLORADO...

CITY           SKY/WX    TMP DP  RH WIND       PRES   REMARKS
GREELEY ARPT   FAIR      67  45  45 VRB7      30.24S
AKRON          PTSUNNY   68  43  40 VRB6      30.21F
BURLINGTON     CLOUDY    66  47  50 N3        30.21S
WRAY           FAIR      75  41  29 NW5       30.17F
YUMA           FAIR      70  41  35 NW7       30.19S
STERLING       PTSUNNY   72  45  37 SW5       30.17F
HOLYOKE        NOT AVBL
FORT MORGAN    PTSUNNY   69  41  36 CALM      30.22F
$$

COZ086-089-092>099-240000-
...SOUTHEAST COLORADO...

CITY           SKY/WX    TMP DP  RH WIND       PRES   REMARKS
PUEBLO         CLOUDY    63  49  60 N3        30.21S
LA JUNTA       FAIR      70  44  39 SE3       30.18F
LAMAR          FAIR      73  43  33 CALM      30.15F
SPRINGFIELD      N/A     68  45  43 E8        30.17F
$$



USA.gov is the U.S. government's official web portal to all federal, state and local government web resources and services.